Main page
METAR-TAF:

METAR-TAF

Airports :

Monte Dourado Airport

Almeirim, Pará, Brazil

latitude: 00-53-23S, longitude: 052-36-08W, elevation: 206 m

Current weather observation

The report was made 1 hour and 4 minutes ago, at 19:00 UTC
Wind 5 kt from the East/Northeast
Temperature 22°C
Humidity 100%
Pressure 1013 hPa
Visibility 10 km or more
Broken clouds at a height of 2000 ft
Overcast at a height of 8000 ft

METAR: SBMD 271900Z 06005KT 9999 BKN020 OVC080 22/22 Q1013

Time: 17:04 (20:04 UTC)


TAF: missing

Weather observations and forecasts of more than 4000 airports (METAR and TAF reports).

The available stations are represented by yellow and red dots on the map.

Hover mouse over dot to see the name of the station.

Then click to see weather observations and forecasts.

To change the map : click on the green buttons with a black cross to zoom in, on the green button with a dash to zoom out, or on the green arrows for adjacent maps.


METAR-TAF: